Regional Weather Roundup
Issued by NWS Upton, NY

Home | Current Version | Previous Version | Text Only | Print | Product List | Glossary On
Versions: 1 2 3 4 5 6 7 8 9 10 11 12 13 14 15 16 17 18 19 20 21 22 23 24 25 26 27 28 29 30 31 32 33 34 35 36 37 38 39 40 41 42 43 44 45 46 47 48 49 50
000
ASUS41 KOKX 252313
RWROKX

Regional Weather Roundup
National Weather Service New York NY
700 PM EDT SAT MAY 25 2019

Note: "FAIR" indicates few or no clouds below 12,000 feet with no
significant weather and/or obstructions to visibility.

NYZ071-072-176-178-NJZ106-104-260000-
New York City Metro Area

CITY           SKY/WX    TMP DP  RH WIND       PRES   REMARKS
Central Park   FAIR      63  46  54 MISG      30.14S
Bronx Lehman C   N/A     63  45  51 S13         N/A
LaGuardia Arpt FAIR      64  44  48 S16G23    30.11F
Queens College   N/A     61  45  55 S17         N/A
Kennedy Intl   FAIR      61  50  67 S18       30.13F
Breezy Point     N/A     57 N/A N/A S17G24      N/A
Brooklyn Coll    N/A     61  48  63 SE12        N/A
Staten Island    N/A     64  48  55 S9          N/A
Newark/Liberty PTSUNNY   67  47  48 SE12      30.10S
Teterboro      FAIR      66  47  50 S14       30.09F
$$

NYZ177-179-078>081-260000-
Long Island New York

CITY           SKY/WX    TMP DP  RH WIND       PRES   REMARKS
Jones Beach      N/A     59 N/A N/A S13G18      N/A
Wantagh          N/A     61  48  63 S9          N/A
Hempstead      NOT AVBL
Matinecock Pt    N/A     63 N/A N/A S8G14       N/A
Farmingdale    PTSUNNY   60  47  61 S13       30.15S
MacArthur/ISP  PTSUNNY   60  48  64 S13       30.15F
Stony Brook      N/A     61  45  55 S6          N/A
Shirley        FAIR      60  46  59 S14       30.14F
Mt Sinai Harb    N/A    N/A N/A N/A S12G18      N/A
Westhampton    FAIR      58  49  72 S9        30.15F
East Hampton   FAIR      57  49  74 S12       30.14F
Southold         N/A     61  46  59 S13         N/A
Montauk          N/A     59  49  69 S8        30.16F
$$

NYZ052-065-067-260000-
Hudson Valley

CITY           SKY/WX    TMP DP  RH WIND       PRES   REMARKS
White Plains   PTSUNNY   61  43  51 S12G17    30.11S
Larchmont Harb   N/A     61 N/A N/A S15         N/A
Croton On Huds   N/A     64 N/A N/A S8G14       N/A
Somers           N/A     61  46  59 S12         N/A
Brewster         N/A     61  48  63 S7          N/A
Newburgh       PTSUNNY   68  54  60 SW9G18    30.08S
Montgomery     CLOUDY    66  52  60 S14       30.04F
Otisville        N/A     66  55  68 S5          N/A
Warwick          N/A     64  52  63 SE7         N/A
Suffern          N/A     64  48  55 S5          N/A
Poughkeepsie   CLOUDY    68  49  50 SE9G21    30.06F
Albany         PTSUNNY   71  53  52 S14G23    29.99F
$$

NJZ001-105-106-008-010-013-015-019>022-104-260000-
New Jersey

CITY           SKY/WX    TMP DP  RH WIND       PRES   REMARKS
Newark/Liberty PTSUNNY   67  47  48 SE12      30.10S
Teterboro      FAIR      66  47  50 S14       30.09F
Caldwell       FAIR      69  48  47 S12       30.08F
Somerville     FAIR      70  54  56 S10       30.07F
Linden         FAIR      67  45  44 S15       30.10F
Perth Amboy      N/A     66 N/A N/A S13G20      N/A
Sussex         CLOUDY    70  56  61 SW7       30.07F
Andover          N/A     69  54  58 VRB6G17   30.07F
Trenton        FAIR      69  54  58 S14       30.08F
Millville      FAIR      65  53  65 S9        30.13S
Atlantic City  FAIR      63  53  70 S10       30.15S
Wrightstown    FAIR      67  52  56 S10       30.08
Toms River     FAIR      65  52  62 S12       30.14R
Belmar         FAIR      63  50  62 SE10      30.13S
$$

PAZ047>061-062-071-260000-
Eastern Pennsylvania

CITY           SKY/WX    TMP DP  RH WIND       PRES   REMARKS
Philadelphia   PTSUNNY   71  54  54 S10       30.10F
Allentown      CLOUDY    73  55  53 S8G20     30.06F
Scranton       PTSUNNY   70  57  63 S8        30.02F
$$

CTZ002-004>006-009-010-012-RIZ004-006-007-MAZ004-011-015-260000-
Southern New England

 In CT

CITY           SKY/WX    TMP DP  RH WIND       PRES   REMARKS
Bradley Intl   PTSUNNY   69  45  41 S15G26    30.08S
Hartford       FAIR      66  42  41 S12       30.10R
Danbury        CLOUDY    62  44  51 S12G20    30.11R
Wtrbury/Oxford PTSUNNY   62  42  47 S10       30.12S
Norwalk Harbor   N/A     59 N/A N/A S12         N/A
Bridgeport     PTSUNNY   63  48  58 SW13      30.14R
Meriden        FAIR      64  39  39 S12       30.12R
New Haven      FAIR      64  46  52 S10       30.13S
Chester        FAIR      63  39  42 S9G16     30.13F
Groton         FAIR      61  47  59 S12       30.13F
Willimantic    FAIR      65  41  41 S14       30.10F

 In RI

CITY           SKY/WX    TMP DP  RH WIND       PRES   REMARKS
Providence     PTSUNNY   66  43  43 SW15G22   30.11S
Block Island   NOT AVBL
Westerly       FAIR      63  47  55 S15G23    30.15S

In MA

CITY           SKY/WX    TMP DP  RH WIND       PRES   REMARKS
Boston         CLOUDY    70  46  42 S15       30.06S
Worcester      FAIR      66  48  52 S13G21    30.08F
Westfield      FAIR      68  47  46 S14G26    30.05S
Provincetown   FAIR      62  45  53 S10       30.11F
Nantucket      FAIR      55  51  86 S6        30.14F
$$

ANZ330-335-338-340-345-350-353-355-260000-
Coastal Marine Observations


STATION/POSITION TIME  SKY/WX   TEMP    WIND        PRES    VSBY  WAVE
                                AIR SEA DIR/SP/G                  HT/PER
                 (UTC)          (F)     (DEG/KT/KT) (MB)    (MI)  (FT/S)
NY Harb Entrance 2250            60 59  180/ 16/ 19 1020.4          3/ 4
20 S Fire Island 2250            59 58  180/ 16/ 17 1020.3          2/ 8
Great South Bay  2230            59 66  190/ 12/ 17   N/A
23 SSW Montauk P 2250            56 54  200/  8/ 10 1021.6          2/ 8
15 E Barnegat Li 2230               60                N/A           3/ 6
Hudson Canyon    2250            58 57  170/  8/ 10 1022.3          2/ 7
Kings Point      2248            61 60  220/ 18/ 23 1020.7
Execution Rocks  NOT AVBL
Western LI Sound NOT AVBL
Central LI Sound NOT AVBL
Robbins Reef     2248            61     160/ 20/ 22 1019.1
$$


>>>>>>>>>>>>>>>>>>>>>>>>>>>> KEY <<<<<<<<<<<<<<<<<<<<<<<<<<<
>                                                          <
>     SKY/WX - Sky Condition/Present Weather               <
>     TMP    - Temperature in Fahrenheit                   <
>     DP     - Dew Point in Fahrenheit                     <
>     RH     - Relative Humidity in Percent                <
>     WIND   - Direction (from) and Speed in MPH           <
>     PRES   - Mean Sea Level Pressure (inches of Hg)      <
>     WCI    - Wind Chill Index                            <
>     VSB    - Visibility in Miles                         <
>     HX     - Heat Index                                  <
>     TC     - Temperature in Celsius                      <
>     VRB    - Variable Wind Direction                     <
>                                                          <
>>>>>>>>>>>>>>>>>>>>>>>>>>>> KEY <<<<<<<<<<<<<<<<<<<<<<<<<<<




USA.gov is the U.S. government's official web portal to all federal, state and local government web resources and services.